Date String (YYYY-MM-DD hh:mm:ss) UTC,Instrument flags,absolute air pressure of the measurement (hPa),sample flow rate (lpm),inlet stack bypass flow (lpm),air temperature of the measurement (°C),ambient temperature measured by the external sensor (°C),aerosol sample conditioner tube jacket temperature (°C),OPC LED temperature (°C),internal box temperature (°C),relative humidity of the measurement (%),span deviation,mass concentration of particles derived from Lorenz-Mie calculation of OPC scattering (μg/m³),mass concentration of particles derived from Lorenz-Mie calculation of OPC scattering (μg/m³),mass concentration of particles derived from Lorenz-Mie calculation of OPC scattering (μg/m³)
DateTimeUTC,F1_M11,P_M11,Q1_M11,Q2_M11,T1_M11,T2_M11,T3_M11,T4_M11,T5_M11,U1_M11,ZSPAN_M11,X2_M11,X0_M11,X1_M11
2024-04-17 00:00:00,SystemResetWarning,0822.7,4.99,000.00,025.2,022.5,000.0,034.1,026.1,013.9,0000.0,0003.24,0009.73,0002.00
2024-04-17 00:01:00,SystemResetWarning,0822.8,5.00,000.00,025.2,022.9,000.0,034.0,026.4,014.1,0000.0,0003.21,0009.55,0002.00
2024-04-17 00:02:00,SystemResetWarning,0823.0,5.01,000.00,025.2,023.2,000.0,033.9,026.6,014.1,0000.0,0003.17,0009.28,0001.99
2024-04-17 00:03:00,SystemResetWarning,0822.9,5.02,000.00,025.2,023.5,000.0,033.8,026.8,014.2,0000.0,0003.16,0008.99,0001.99
2024-04-17 00:04:00,SystemResetWarning,0822.9,5.00,000.00,025.3,023.8,000.0,033.8,027.0,014.0,0000.0,0003.14,0008.76,0001.99
2024-04-17 00:05:00,SystemResetWarning,0823.0,4.99,000.00,025.3,024.1,000.0,033.8,027.1,013.9,0000.0,0003.10,0008.71,0001.97
2024-04-17 00:06:00,SystemResetWarning,0823.0,4.99,000.00,025.3,024.3,000.0,033.8,027.2,013.8,0000.0,0003.11,0009.65,0001.97
2024-04-17 00:07:00,SystemResetWarning,0823.0,5.01,000.00,025.4,024.4,000.0,033.8,027.3,013.9,0000.0,0003.13,0010.09,0001.98
2024-04-17 00:08:00,SystemResetWarning,0823.1,5.01,000.00,025.4,024.6,000.0,033.8,027.3,013.9,0000.0,0003.17,0010.57,0001.97
2024-04-17 00:09:00,SystemResetWarning,0823.1,5.00,000.00,025.5,024.7,000.0,033.8,027.4,013.8,0000.0,0003.16,0010.17,0001.97
2024-04-17 00:10:00,SystemResetWarning,0823.2,4.99,000.00,025.5,024.8,000.0,033.8,027.5,013.8,0000.0,0003.09,0009.30,0001.96
2024-04-17 00:11:00,SystemResetWarning,0823.2,4.99,000.00,025.6,024.9,000.0,033.8,027.5,013.4,0000.0,0003.06,0009.18,0001.96
2024-04-17 00:12:00,SystemResetWarning,0823.2,4.99,000.00,025.6,025.0,000.0,033.8,027.6,013.5,0000.0,0003.04,0009.11,0001.95
2024-04-17 00:13:00,SystemResetWarning,0823.1,5.00,000.00,025.7,025.1,000.0,033.9,027.6,013.4,0000.0,0003.04,0009.35,0001.96
2024-04-17 00:14:00,SystemResetWarning,0823.0,5.01,000.00,025.7,025.2,000.0,033.9,027.7,013.2,0000.0,0003.08,0009.58,0001.97
2024-04-17 00:15:00,SystemResetWarning,0823.0,5.00,000.00,025.8,025.2,000.0,033.9,027.7,013.1,0000.0,0003.12,0009.68,0001.96
2024-04-17 00:16:00,SystemResetWarning,0823.0,5.00,000.00,025.8,025.3,000.0,033.9,027.7,013.1,0000.0,0003.13,0009.79,0001.97
2024-04-17 00:17:00,SystemResetWarning,0823.3,5.00,000.00,025.8,025.3,000.0,034.0,027.8,013.1,0000.0,0003.12,0008.77,0001.97
2024-04-17 00:18:00,SystemResetWarning,0823.3,5.00,000.00,025.9,025.3,000.0,034.0,027.8,013.1,0000.0,0003.10,0008.93,0001.96
2024-04-17 00:19:00,SystemResetWarning,0823.2,5.00,000.00,025.9,025.4,000.0,034.0,027.9,013.2,0000.0,0003.04,0008.45,0001.95
2024-04-17 00:20:00,SystemResetWarning,0823.3,5.00,000.00,026.0,025.4,000.0,034.1,027.9,013.3,0000.0,0003.08,0008.85,0001.95
2024-04-17 00:21:00,SystemResetWarning,0823.2,5.00,000.00,026.0,025.5,000.0,034.1,027.9,013.2,0000.0,0003.11,0008.98,0001.95
2024-04-17 00:22:00,SystemResetWarning,0823.4,5.00,000.00,026.0,025.5,000.0,034.2,028.0,013.2,0000.0,0003.13,0009.03,0001.96
2024-04-17 00:23:00,SystemResetWarning,0823.3,5.00,000.00,026.0,024.9,000.0,034.2,027.6,013.2,0000.0,0003.18,0009.15,0001.98
2024-04-17 00:24:00,SystemResetWarning,0823.2,5.01,000.00,025.6,022.7,000.0,034.2,026.3,013.6,0000.0,0003.21,0009.04,0001.98
2024-04-17 00:25:00,SystemResetWarning,0823.0,5.02,000.00,025.3,022.3,000.0,034.2,026.0,013.8,0000.0,0003.21,0008.90,0001.98
2024-04-17 00:26:00,SystemResetWarning,0823.0,5.00,000.00,025.1,022.6,000.0,034.1,026.2,013.9,0000.0,0003.18,0009.45,0001.98
2024-04-17 00:27:00,SystemResetWarning,0823.3,5.00,000.00,025.2,023.0,000.0,034.0,026.5,014.0,0000.0,0003.14,0009.24,0001.97
2024-04-17 00:28:00,SystemResetWarning,0823.2,4.99,000.00,025.2,023.3,000.0,033.9,026.7,013.8,0000.0,0003.11,0008.75,0001.97
2024-04-17 00:29:00,SystemResetWarning,0823.2,4.99,000.00,025.2,023.6,000.0,033.9,026.9,013.9,0000.0,0003.10,0007.90,0001.98
2024-04-17 00:30:00,SystemResetWarning,0823.3,5.00,000.00,025.3,023.9,000.0,033.8,027.0,014.0,0000.0,0003.13,0007.87,0001.98
2024-04-17 00:31:00,SystemResetWarning,0823.4,5.00,000.00,025.3,024.1,000.0,033.8,027.1,013.9,0000.0,0003.08,0007.53,0001.97
2024-04-17 00:32:00,SystemResetWarning,0823.4,5.01,000.00,025.3,024.3,000.0,033.8,027.2,013.7,0000.0,0003.07,0007.41,0001.96
2024-04-17 00:33:00,SystemResetWarning,0823.3,5.01,000.00,025.4,024.5,000.0,033.8,027.3,013.4,0000.0,0003.04,0007.63,0001.94
2024-04-17 00:34:00,SystemResetWarning,0823.4,5.00,000.00,025.5,024.6,000.0,033.8,027.4,013.4,0000.0,0002.99,0007.54,0001.92
2024-04-17 00:35:00,SystemResetWarning,0823.3,5.00,000.00,025.5,024.7,000.0,033.8,027.4,013.4,0000.0,0002.99,0007.53,0001.91
2024-04-17 00:36:00,SystemResetWarning,0823.3,5.00,000.00,025.5,024.8,000.0,033.8,027.4,013.3,0000.0,0003.08,0007.64,0001.90
2024-04-17 00:37:00,SystemResetWarning,0823.3,5.00,000.00,025.6,024.9,000.0,033.9,027.5,013.4,0000.0,0003.08,0006.69,0001.88
2024-04-17 00:38:00,SystemResetWarning,0823.3,5.00,000.00,025.6,025.0,000.0,033.9,027.6,013.4,0000.0,0003.06,0006.10,0001.88
2024-04-17 00:39:00,SystemResetWarning,0823.3,4.99,000.00,025.7,025.1,000.0,033.9,027.6,013.4,0000.0,0003.11,0006.52,0001.87
2024-04-17 00:40:00,SystemResetWarning,0823.3,5.00,000.00,025.7,025.2,000.0,033.9,027.7,013.3,0000.0,0003.14,0007.21,0001.85
2024-04-17 00:41:00,SystemResetWarning,0823.3,5.00,000.00,025.8,025.2,000.0,034.0,027.7,013.3,0000.0,0003.12,0007.14,0001.86
2024-04-17 00:42:00,SystemResetWarning,0823.3,5.00,000.00,025.8,025.3,000.0,034.0,027.8,013.2,0000.0,0003.12,0007.23,0001.86
2024-04-17 00:43:00,SystemResetWarning,0823.3,5.00,000.00,025.9,025.3,000.0,034.0,027.8,013.1,0000.0,0003.12,0007.34,0001.86
2024-04-17 00:44:00,SystemResetWarning,0823.3,5.00,000.00,025.9,025.4,000.0,034.1,027.9,012.8,0000.0,0003.10,0006.98,0001.86
2024-04-17 00:45:00,SystemResetWarning,0823.4,5.00,000.00,026.0,025.4,000.0,034.1,027.9,012.6,0000.0,0003.12,0007.11,0001.87
2024-04-17 00:46:00,SystemResetWarning,0823.4,5.00,000.00,026.0,025.5,000.0,034.1,027.9,012.5,0000.0,0003.11,0007.06,0001.86
2024-04-17 00:47:00,SystemResetWarning,0823.4,5.00,000.00,026.0,025.5,000.0,034.2,028.0,012.5,0000.0,0003.00,0006.66,0001.84
2024-04-17 00:48:00,SystemResetWarning,0823.4,5.00,000.00,026.1,025.5,000.0,034.2,028.0,012.4,0000.0,0002.88,0006.33,0001.84
2024-04-17 00:49:00,SystemResetWarning,0823.4,5.00,000.00,025.9,024.0,000.0,034.3,027.1,012.4,0000.0,0002.91,0006.48,0001.85
2024-04-17 00:50:00,SystemResetWarning,0823.2,5.02,000.00,025.5,022.4,000.0,034.3,026.2,012.7,0000.0,0002.89,0006.61,0001.85
2024-04-17 00:51:00,SystemResetWarning,0823.2,5.00,000.00,025.2,022.4,000.0,034.2,026.0,012.8,0000.0,0002.83,0005.75,0001.85
2024-04-17 00:52:00,SystemResetWarning,0823.3,4.99,000.00,025.2,022.8,000.0,034.0,026.3,012.8,0000.0,0002.79,0005.67,0001.84
2024-04-17 00:53:00,SystemResetWarning,0823.3,4.99,000.00,025.2,023.1,000.0,034.0,026.6,012.8,0000.0,0002.85,0006.23,0001.83
2024-04-17 00:54:00,SystemResetWarning,0823.3,5.01,000.00,025.2,023.5,000.0,033.9,026.8,012.8,0000.0,0002.89,0006.72,0001.84
2024-04-17 00:55:00,SystemResetWarning,0823.3,4.99,000.00,025.3,023.8,000.0,033.9,027.0,012.8,0000.0,0002.89,0006.85,0001.82
2024-04-17 00:56:00,SystemResetWarning,0823.3,5.00,000.00,025.3,024.0,000.0,033.8,027.1,012.8,0000.0,0002.83,0007.51,0001.81
2024-04-17 00:57:00,SystemResetWarning,0823.3,5.00,000.00,025.3,024.2,000.0,033.8,027.2,012.8,0000.0,0002.81,0007.46,0001.80
2024-04-17 00:58:00,SystemResetWarning,0823.3,5.00,000.00,025.4,024.4,000.0,033.8,027.3,012.8,0000.0,0002.81,0007.61,0001.82
2024-04-17 00:59:00,SystemResetWarning,0823.3,5.00,000.00,025.4,024.6,000.0,033.8,027.4,012.7,0000.0,0002.86,0007.74,0001.80
